Location: Avenches
(46.8809°N, 7.0410°E)
Time: 08:45:22
(UTC+00:00)

STARLINK-1130 (DARKSAT) - Pass Details

Date: 30 March 2020
Orbit: 549 x 550 km, 53.0° (Epoch: 26 May)

Event Time Altitude Azimuth Distance (km) Brightness Sun altitude
Rises 19:39:12 0° 299° (WNW) 2,728 9.0 -17.2°
Reaches altitude 10° 19:41:26 10° 300° (WNW) 1,832 7.6 -17.5°
Maximum altitude 19:45:37 81° 28° (NNE) 563 3.6 -18.2°
Enters shadow 19:46:51 44° 109° (ESE) 763 3.8 -18.4°
